^^
Station Historical Data
Daily Summary for October 1, 2021 Units:  English    Metric   Both
Daily Weekly Monthly Yearly
  High: Low: Average:
Temperature: 70.2 °F 55.5 °F 61 °F
Dew Point: 62.2 °F 51.2 °F 55.6 °F
Humidity: 89% 71% 83%
Wind Speed: 3mph 0mph 1mph
Wind Gust: 3mph - -
Wind- - SSE
Pressure: 30.23 in 30.09 in -
Precipitation: 0.00 in    
 
 
Tabular Data for October 1, 2021
Time Temperature Dew Point Pressure Wind Wind Speed Wind Gust Humidity Rainfall Rate (Hourly) solar
00:00 57.2 °F 53.7 °F 30.21 in ESE 1 mph 1 mph 88% 0.00 in 0 W/m2
00:10 57 °F 53.5 °F 30.22 in South 1 mph 1 mph 88% 0.00 in 0 W/m2
00:15 57 °F 53.5 °F 30.22 in ESE 1 mph 2 mph 88% 0.00 in 0 W/m2
00:20 56.9 °F 53.4 °F 30.22 in SE 1 mph 1 mph 88% 0.00 in 0 W/m2
00:25 56.9 °F 53.4 °F 30.22 in ESE 1 mph 2 mph 88% 0.00 in 0 W/m2
00:30 56.9 °F 53.4 °F 30.22 in NE 1 mph 1 mph 88% 0.00 in 0 W/m2
00:35 56.9 °F 53.4 °F 30.22 in ENE 1 mph 2 mph 88% 0.00 in 0 W/m2
00:40 56.8 °F 53.3 °F 30.22 in NNW 1 mph 1 mph 88% 0.00 in 0 W/m2
00:45 56.7 °F 53.2 °F 30.22 in ESE 1 mph 1 mph 88% 0.00 in 0 W/m2
00:50 56.6 °F 53.1 °F 30.22 in ESE 1 mph 1 mph 88% 0.00 in 0 W/m2
00:55 56.6 °F 53.1 °F 30.22 in ESE 1 mph 1 mph 88% 0.00 in 0 W/m2
01:00 56.5 °F 53 °F 30.22 in North 1 mph 1 mph 88% 0.00 in 0 W/m2
01:05 56.4 °F 52.9 °F 30.22 in ESE 1 mph 1 mph 88% 0.00 in 0 W/m2
01:10 56.4 °F 52.9 °F 30.22 in East 1 mph 1 mph 88% 0.00 in 0 W/m2
01:15 56.3 °F 52.8 °F 30.22 in SE 1 mph 1 mph 88% 0.00 in 0 W/m2
01:20 56.3 °F 52.8 °F 30.22 in Calm     88% 0.00 in 0 W/m2
01:25 56.3 °F 52.8 °F 30.22 in SE 1 mph 1 mph 88% 0.00 in 0 W/m2
01:30 56.2 °F 52.7 °F 30.21 in SE 1 mph 1 mph 88% 0.00 in 0 W/m2
01:35 56.2 °F 52.7 °F 30.21 in NE 1 mph 1 mph 88% 0.00 in 0 W/m2
01:40 56.1 °F 52.6 °F 30.22 in SE 1 mph 1 mph 88% 0.00 in 0 W/m2
01:45 56.1 °F 52.6 °F 30.22 in SE 1 mph 1 mph 88% 0.00 in 0 W/m2
01:50 56.1 °F 52.6 °F 30.22 in NE 1 mph 1 mph 88% 0.00 in 0 W/m2
01:55 55.9 °F 52.4 °F 30.21 in ESE 1 mph 1 mph 88% 0.00 in 0 W/m2
02:00 55.9 °F 52.7 °F 30.21 in SE 1 mph 1 mph 89% 0.00 in 0 W/m2
02:05 55.9 °F 52.7 °F 30.21 in SE 1 mph 1 mph 89% 0.00 in 0 W/m2
02:10 55.9 °F 52.7 °F 30.21 in ESE 1 mph 1 mph 89% 0.00 in 0 W/m2
02:15 55.9 °F 52.7 °F 30.21 in SE 1 mph 1 mph 89% 0.00 in 0 W/m2
02:20 55.9 °F 52.7 °F 30.22 in NE 1 mph 1 mph 89% 0.00 in 0 W/m2
02:25 56 °F 52.8 °F 30.22 in South 1 mph 1 mph 89% 0.00 in 0 W/m2
02:30 55.9 °F 52.7 °F 30.21 in East 1 mph 2 mph 89% 0.00 in 0 W/m2
02:35 55.8 °F 52.6 °F 30.22 in SE 1 mph 2 mph 89% 0.00 in 0 W/m2
02:40 55.7 °F 52.5 °F 30.22 in East 1 mph 1 mph 89% 0.00 in 0 W/m2
02:45 55.7 °F 52.5 °F 30.21 in SE 1 mph 1 mph 89% 0.00 in 0 W/m2
02:50 55.8 °F 52.6 °F 30.21 in East 1 mph 1 mph 89% 0.00 in 0 W/m2
02:55 55.9 °F 52.7 °F 30.21 in ESE 1 mph 1 mph 89% 0.00 in 0 W/m2
03:00 56 °F 52.8 °F 30.21 in ESE 1 mph 1 mph 89% 0.00 in 0 W/m2
03:05 56 °F 52.8 °F 30.21 in East 1 mph 1 mph 89% 0.00 in 0 W/m2
03:10 56.2 °F 53 °F 30.21 in ESE 1 mph 1 mph 89% 0.00 in 0 W/m2
03:15 56.3 °F 52.8 °F 30.21 in SSW 1 mph 1 mph 88% 0.00 in 0 W/m2
03:20 56.3 °F 52.8 °F 30.20 in SE 1 mph 1 mph 88% 0.00 in 0 W/m2
03:25 56.4 °F 52.9 °F 30.20 in East 1 mph 2 mph 88% 0.00 in 0 W/m2
03:30 56.5 °F 53 °F 30.20 in ESE 1 mph 1 mph 88% 0.00 in 0 W/m2
03:35 56.6 °F 53.1 °F 30.20 in East 1 mph 1 mph 88% 0.00 in 0 W/m2
03:40 56.6 °F 53.1 °F 30.20 in NE 1 mph 1 mph 88% 0.00 in 0 W/m2
03:45 56.6 °F 53.1 °F 30.20 in SE 1 mph 1 mph 88% 0.00 in 0 W/m2
03:50 56.6 °F 53.1 °F 30.20 in SSE 1 mph 1 mph 88% 0.00 in 0 W/m2
03:55 56.7 °F 53.2 °F 30.20 in ESE 1 mph 1 mph 88% 0.00 in 0 W/m2
04:00 56.6 °F 53.1 °F 30.20 in North 1 mph 1 mph 88% 0.00 in 0 W/m2
04:05 56.5 °F 53 °F 30.20 in South 1 mph 1 mph 88% 0.00 in 0 W/m2
04:10 56.5 °F 53 °F 30.20 in WNW 1 mph 1 mph 88% 0.00 in 0 W/m2
04:15 56.5 °F 53 °F 30.20 in ESE 1 mph 3 mph 88% 0.00 in 0 W/m2
04:20 56.4 °F 53.2 °F 30.20 in North 1 mph 1 mph 89% 0.00 in 0 W/m2
04:25 56.4 °F 53.2 °F 30.20 in North 1 mph 1 mph 89% 0.00 in 0 W/m2
04:30 56.4 °F 52.9 °F 30.20 in SE 1 mph 1 mph 88% 0.00 in 0 W/m2
04:35 56.4 °F 53.2 °F 30.20 in SE 1 mph 1 mph 89% 0.00 in 0 W/m2
04:40 56.4 °F 53.2 °F 30.20 in ESE 1 mph 1 mph 89% 0.00 in 0 W/m2
04:45 56.4 °F 53.2 °F 30.20 in East 1 mph 1 mph 89% 0.00 in 0 W/m2
04:50 56.4 °F 53.2 °F 30.20 in SW 1 mph 1 mph 89% 0.00 in 0 W/m2
04:55 56.3 °F 52.8 °F 30.21 in SSW 1 mph 2 mph 88% 0.00 in 0 W/m2
05:00 56.2 °F 52.7 °F 30.21 in South 1 mph 1 mph 88% 0.00 in 0 W/m2
05:05 56.3 °F 52.8 °F 30.20 in NNW 1 mph 1 mph 88% 0.00 in 0 W/m2
05:10 56.3 °F 52.8 °F 30.21 in WSW 1 mph 1 mph 88% 0.00 in 0 W/m2
05:15 56.2 °F 52.7 °F 30.21 in SSE 1 mph 2 mph 88% 0.00 in 0 W/m2
05:20 56.2 °F 52.7 °F 30.21 in East 1 mph 1 mph 88% 0.00 in 0 W/m2
05:25 56.2 °F 52.4 °F 30.21 in ESE 1 mph 1 mph 87% 0.00 in 0 W/m2
05:30 56.2 °F 52.4 °F 30.21 in East 1 mph 1 mph 87% 0.00 in 0 W/m2
05:35 56.2 °F 52.4 °F 30.21 in SE 1 mph 1 mph 87% 0.00 in 0 W/m2
05:40 56.1 °F 52.3 °F 30.21 in NW 1 mph 1 mph 87% 0.00 in 0 W/m2
05:45 56.1 °F 52 °F 30.21 in SE 1 mph 1 mph 86% 0.00 in 0 W/m2
05:50 56.2 °F 52.1 °F 30.21 in North 1 mph 1 mph 86% 0.00 in 0 W/m2
05:55 56.2 °F 51.7 °F 30.21 in WSW 1 mph 1 mph 85% 0.00 in 0 W/m2
06:00 56.2 °F 51.7 °F 30.21 in SE 1 mph 1 mph 85% 0.00 in 0 W/m2
06:05 56.2 °F 51.7 °F 30.21 in NW 1 mph 1 mph 85% 0.00 in 0 W/m2
06:10 56.3 °F 51.5 °F 30.21 in ENE 1 mph 1 mph 84% 0.00 in 0 W/m2
06:15 56.3 °F 51.2 °F 30.21 in West 1 mph 2 mph 83% 0.00 in 0 W/m2
06:20 56.3 °F 51.2 °F 30.21 in NW 1 mph 1 mph 83% 0.00 in 0 W/m2
06:25 56.3 °F 51.5 °F 30.21 in NW 1 mph 1 mph 84% 0.00 in 0 W/m2
06:30 56.4 °F 51.6 °F 30.21 in NE 1 mph 2 mph 84% 0.00 in 0 W/m2
06:35 56.4 °F 51.6 °F 30.21 in NNW 1 mph 2 mph 84% 0.00 in 0 W/m2
06:40 56.4 °F 51.3 °F 30.21 in East 1 mph 1 mph 83% 0.00 in 0 W/m2
06:45 56.4 °F 51.6 °F 30.22 in ESE 1 mph 1 mph 84% 0.00 in 0 W/m2
06:50 56.3 °F 51.8 °F 30.21 in NE 1 mph 1 mph 85% 0.00 in 0 W/m2
06:55 56.3 °F 51.8 °F 30.21 in North 1 mph 1 mph 85% 0.00 in 0 W/m2
07:00 56 °F 51.2 °F 30.21 in NW 1 mph 2 mph 84% 0.00 in 0 W/m2
07:05 55.9 °F 51.5 °F 30.22 in NW 1 mph 2 mph 85% 0.00 in 0 W/m2
07:10 55.9 °F 51.5 °F 30.22 in NNE 1 mph 2 mph 85% 0.00 in 0 W/m2
07:15 55.8 °F 51.4 °F 30.22 in NE 1 mph 2 mph 85% 0.00 in 0 W/m2
07:20 55.7 °F 51.6 °F 30.22 in South 1 mph 1 mph 86% 0.00 in 0 W/m2
07:25 55.7 °F 51.6 °F 30.22 in WNW 1 mph 1 mph 86% 0.00 in 0 W/m2
07:30 55.7 °F 51.6 °F 30.22 in West 1 mph 1 mph 86% 0.00 in 5 W/m2
07:35 55.6 °F 51.5 °F 30.22 in NNE 1 mph 1 mph 86% 0.00 in 5 W/m2
07:40 55.6 °F 51.5 °F 30.22 in North 1 mph 2 mph 86% 0.00 in 9 W/m2
07:45 55.5 °F 51.4 °F 30.23 in NE 1 mph 2 mph 86% 0.00 in 11 W/m2
07:50 55.6 °F 51.8 °F 30.23 in NNW 1 mph 1 mph 87% 0.00 in 12 W/m2
07:55 55.7 °F 51.9 °F 30.23 in NW 1 mph 1 mph 87% 0.00 in 14 W/m2
08:00 55.9 °F 52.1 °F 30.23 in NW 1 mph 1 mph 87% 0.00 in 16 W/m2
08:05 56.1 °F 52.3 °F 30.23 in NE 1 mph 1 mph 87% 0.00 in 19 W/m2
08:10 56.1 °F 52.3 °F 30.23 in SW 1 mph 1 mph 87% 0.00 in 42 W/m2
08:15 56 °F 51.9 °F 30.23 in North 1 mph 1 mph 86% 0.00 in 70 W/m2
08:20 55.9 °F 51.8 °F 30.23 in NE 1 mph 1 mph 86% 0.00 in 83 W/m2
08:25 55.9 °F 52.1 °F 30.23 in NE 1 mph 1 mph 87% 0.00 in 93 W/m2
08:30 56 °F 52.2 °F 30.23 in North 1 mph 1 mph 87% 0.00 in 105 W/m2
08:35 56.1 °F 52.3 °F 30.23 in NNW 1 mph 1 mph 87% 0.00 in 118 W/m2
08:40 56.1 °F 52.3 °F 30.23 in East 1 mph 1 mph 87% 0.00 in 130 W/m2
08:45 56.1 °F 52 °F 30.23 in NNE 1 mph 1 mph 86% 0.00 in 142 W/m2
08:50 56.2 °F 52.1 °F 30.23 in NE 1 mph 1 mph 86% 0.00 in 155 W/m2
08:55 56.3 °F 52.2 °F 30.23 in NNE 1 mph 2 mph 86% 0.00 in 65 W/m2
09:00 56.4 °F 52.3 °F 30.23 in NNE 1 mph 1 mph 86% 0.00 in 62 W/m2
09:05 56.6 °F 52.5 °F 30.23 in North 1 mph 2 mph 86% 0.00 in 128 W/m2
09:10 56.6 °F 52.5 °F 30.23 in North 1 mph 1 mph 86% 0.00 in 58 W/m2
09:15 56.7 °F 52.6 °F 30.22 in SW 1 mph 1 mph 86% 0.00 in 39 W/m2
09:20 56.7 °F 52.6 °F 30.22 in WNW 1 mph 2 mph 86% 0.00 in 39 W/m2
09:25 56.8 °F 52.7 °F 30.22 in NNE 1 mph 2 mph 86% 0.00 in 40 W/m2
09:30 56.9 °F 52.8 °F 30.22 in ENE 1 mph 2 mph 86% 0.00 in 40 W/m2
09:35 57 °F 52.9 °F 30.22 in East 1 mph 2 mph 86% 0.00 in 44 W/m2
09:40 57.2 °F 53 °F 30.22 in WNW 1 mph 1 mph 86% 0.00 in 44 W/m2
09:45 57.3 °F 53.1 °F 30.22 in NNE 1 mph 1 mph 86% 0.00 in 46 W/m2
09:50 57.6 °F 53.4 °F 30.22 in NNE 1 mph 1 mph 86% 0.00 in 176 W/m2
09:55 57.8 °F 53.6 °F 30.22 in North 1 mph 1 mph 86% 0.00 in 192 W/m2
10:00 58.1 °F 53.9 °F 30.22 in NNW 1 mph 1 mph 86% 0.00 in 120 W/m2
10:05 58.4 °F 54.2 °F 30.22 in NNE 1 mph 2 mph 86% 0.00 in 98 W/m2
10:10 58.7 °F 54.5 °F 30.22 in NE 1 mph 1 mph 86% 0.00 in 49 W/m2
10:15 59.1 °F 54.9 °F 30.21 in NE 1 mph 2 mph 86% 0.00 in 60 W/m2
10:20 59.4 °F 55.2 °F 30.22 in South 1 mph 1 mph 86% 0.00 in 109 W/m2
10:25 59.6 °F 55.1 °F 30.22 in SSW 1 mph 2 mph 85% 0.00 in 56 W/m2
10:30 59.8 °F 55.3 °F 30.21 in NE 2 mph 2 mph 85% 0.00 in 218 W/m2
10:35 60.1 °F 55.6 °F 30.21 in NW 2 mph 3 mph 85% 0.00 in 336 W/m2
10:40 60.3 °F 55.4 °F 30.21 in SSW 2 mph 2 mph 84% 0.00 in 81 W/m2
10:45 60.5 °F 55.3 °F 30.21 in South 2 mph 3 mph 83% 0.00 in 207 W/m2
10:50 60.8 °F 55.6 °F 30.21 in SSE 2 mph 2 mph 83% 0.00 in 338 W/m2
10:55 61.1 °F 55.9 °F 30.21 in SE 2 mph 2 mph 83% 0.00 in 457 W/m2
11:00 61.3 °F 55.8 °F 30.21 in SSW 2 mph 2 mph 82% 0.00 in 468 W/m2
11:05 61.5 °F 56 °F 30.21 in SSW 3 mph 3 mph 82% 0.00 in 385 W/m2
11:10 61.7 °F 56.1 °F 30.21 in SSW 2 mph 2 mph 82% 0.00 in 77 W/m2
11:15 61.8 °F 56.2 °F 30.21 in SSW 2 mph 2 mph 82% 0.00 in 496 W/m2
11:20 61.9 °F 56.3 °F 30.21 in SSW 2 mph 2 mph 82% 0.00 in 503 W/m2
11:25 62 °F 56.1 °F 30.21 in West 2 mph 3 mph 81% 0.00 in 513 W/m2
11:30 62.1 °F 56.5 °F 30.21 in South 2 mph 2 mph 82% 0.00 in 522 W/m2
13:00 63.7 °F 56.4 °F 30.20 in SSW 2 mph 3 mph 77% 0.00 in 624 W/m2
13:05 63.9 °F 56.9 °F 30.20 in SW 2 mph 3 mph 78% 0.00 in 628 W/m2
13:10 64.2 °F 57.2 °F 30.19 in WSW 2 mph 2 mph 78% 0.00 in 628 W/m2
13:15 64.3 °F 57.3 °F 30.19 in WSW 2 mph 3 mph 78% 0.00 in 624 W/m2
13:20 63.9 °F 56.5 °F 30.18 in West 2 mph 2 mph 77% 0.00 in 628 W/m2
13:25 64.2 °F 56.8 °F 30.18 in South 2 mph 2 mph 77% 0.00 in 631 W/m2
13:30 64.2 °F 56.5 °F 30.18 in South 2 mph 2 mph 76% 0.00 in 628 W/m2
13:35 64.6 °F 57.6 °F 30.18 in SSW 2 mph 2 mph 78% 0.00 in 638 W/m2
13:40 64.8 °F 57.4 °F 30.18 in South 2 mph 2 mph 77% 0.00 in 638 W/m2
13:45 65.1 °F 57.7 °F 30.18 in SSW 2 mph 2 mph 77% 0.00 in 628 W/m2
13:50 65.2 °F 57.1 °F 30.18 in SW 2 mph 2 mph 75% 0.00 in 633 W/m2
13:55 65.2 °F 57.1 °F 30.17 in WNW 2 mph 2 mph 75% 0.00 in 621 W/m2
14:00 65.4 °F 57.6 °F 30.17 in SE 2 mph 2 mph 76% 0.00 in 629 W/m2
14:05 65.6 °F 57.8 °F 30.17 in ESE 2 mph 2 mph 76% 0.00 in 622 W/m2
14:10 65.8 °F 57.7 °F 30.17 in SE 2 mph 2 mph 75% 0.00 in 619 W/m2
14:15 66 °F 57.5 °F 30.17 in ESE 1 mph 2 mph 74% 0.00 in 615 W/m2
14:20 66.3 °F 58.1 °F 30.16 in SSW 2 mph 2 mph 75% 0.00 in 619 W/m2
14:25 66.6 °F 58.4 °F 30.16 in SSE 2 mph 2 mph 75% 0.00 in 599 W/m2
14:30 66.7 °F 57.8 °F 30.16 in South 2 mph 2 mph 73% 0.00 in 603 W/m2
14:35 67 °F 58.4 °F 30.16 in SE 2 mph 2 mph 74% 0.00 in 577 W/m2
14:40 67.1 °F 57.8 °F 30.15 in SW 1 mph 1 mph 72% 0.00 in 598 W/m2
14:45 67.4 °F 58.1 °F 30.15 in SE 1 mph 1 mph 72% 0.00 in 599 W/m2
14:50 67.5 °F 58.2 °F 30.15 in SSW 1 mph 2 mph 72% 0.00 in 599 W/m2
14:55 67.7 °F 58.7 °F 30.15 in SSE 1 mph 2 mph 73% 0.00 in 580 W/m2
15:00 67.7 °F 58.7 °F 30.15 in South 1 mph 1 mph 73% 0.00 in 578 W/m2
15:05 68.1 °F 58.7 °F 30.15 in SSW 2 mph 2 mph 72% 0.00 in 571 W/m2
15:10 68.1 °F 58.7 °F 30.15 in ESE 2 mph 2 mph 72% 0.00 in 563 W/m2
15:15 68 °F 59 °F 30.15 in SE 1 mph 2 mph 73% 0.00 in 554 W/m2
15:20 68.1 °F 59.5 °F 30.15 in SE 1 mph 1 mph 74% 0.00 in 547 W/m2
15:25 68.1 °F 59.5 °F 30.14 in SE 1 mph 1 mph 74% 0.00 in 540 W/m2
15:30 68 °F 59.8 °F 30.14 in SE 1 mph 1 mph 75% 0.00 in 533 W/m2
15:35 67.9 °F 59.7 °F 30.14 in SSE 1 mph 1 mph 75% 0.00 in 524 W/m2
15:40 68 °F 59.4 °F 30.14 in WSW 1 mph 2 mph 74% 0.00 in 515 W/m2
15:45 68.3 °F 59.7 °F 30.14 in SSW 1 mph 2 mph 74% 0.00 in 506 W/m2
15:50 68.4 °F 59.8 °F 30.14 in SW 1 mph 1 mph 74% 0.00 in 497 W/m2
15:55 68.6 °F 60 °F 30.13 in SW 1 mph 1 mph 74% 0.00 in 490 W/m2
16:00 68.7 °F 59.7 °F 30.13 in SSE 1 mph 2 mph 73% 0.00 in 482 W/m2
16:05 68.9 °F 60.3 °F 30.13 in ESE 1 mph 2 mph 74% 0.00 in 473 W/m2
16:10 69 °F 60 °F 30.13 in South 1 mph 2 mph 73% 0.00 in 464 W/m2
16:15 69.3 °F 60.7 °F 30.13 in SE 1 mph 2 mph 74% 0.00 in 452 W/m2
16:20 69.5 °F 61.2 °F 30.13 in South 1 mph 2 mph 75% 0.00 in 439 W/m2
16:25 69.6 °F 60.6 °F 30.13 in SSE 1 mph 2 mph 73% 0.00 in 427 W/m2
16:30 69.7 °F 60.3 °F 30.12 in SE 1 mph 2 mph 72% 0.00 in 418 W/m2
16:35 69.7 °F 60.3 °F 30.12 in South 1 mph 2 mph 72% 0.00 in 404 W/m2
16:40 69.9 °F 60.5 °F 30.12 in South 1 mph 2 mph 72% 0.00 in 390 W/m2
16:45 70.1 °F 61.4 °F 30.12 in South 1 mph 2 mph 74% 0.00 in 378 W/m2
16:50 70.1 °F 61.4 °F 30.12 in South 1 mph 1 mph 74% 0.00 in 366 W/m2
16:55 70.1 °F 60.7 °F 30.12 in West 1 mph 1 mph 72% 0.00 in 353 W/m2
17:00 70.1 °F 60.7 °F 30.12 in SSE 1 mph 1 mph 72% 0.00 in 339 W/m2
17:05 70.1 °F 60.3 °F 30.12 in SSE 1 mph 1 mph 71% 0.00 in 329 W/m2
17:10 70.2 °F 61.5 °F 30.12 in SW 1 mph 1 mph 74% 0.00 in 315 W/m2
17:15 70.2 °F 61.9 °F 30.12 in SW 1 mph 1 mph 75% 0.00 in 294 W/m2
17:20 70.1 °F 61.4 °F 30.12 in Calm   1 mph 74% 0.00 in 287 W/m2
17:25 69.9 °F 61.2 °F 30.11 in Calm   1 mph 74% 0.00 in 271 W/m2
17:30 69.9 °F 61.2 °F 30.12 in Calm     74% 0.00 in 257 W/m2
17:35 69.8 °F 61.5 °F 30.11 in Calm   1 mph 75% 0.00 in 241 W/m2
17:40 69.7 °F 61.4 °F 30.11 in Calm     75% 0.00 in 229 W/m2
17:45 69.7 °F 61.4 °F 30.11 in Calm     75% 0.00 in 214 W/m2
17:50 69.6 °F 61.7 °F 30.11 in Calm   1 mph 76% 0.00 in 200 W/m2
17:55 69.5 °F 62 °F 30.11 in SE 1 mph 1 mph 77% 0.00 in 183 W/m2
18:00 69.2 °F 62 °F 30.11 in East 1 mph 1 mph 78% 0.00 in 171 W/m2
18:05 69 °F 61.9 °F 30.10 in Calm   1 mph 78% 0.00 in 156 W/m2
18:10 68.8 °F 61.7 °F 30.10 in Calm   1 mph 78% 0.00 in 120 W/m2
18:15 68.7 °F 61.6 °F 30.10 in Calm   1 mph 78% 0.00 in 100 W/m2
18:20 68.6 °F 61.8 °F 30.10 in Calm   1 mph 79% 0.00 in 44 W/m2
18:25 68.5 °F 61.7 °F 30.10 in NE 1 mph 1 mph 79% 0.00 in 42 W/m2
18:30 68.3 °F 61.5 °F 30.10 in SSW 1 mph 1 mph 79% 0.00 in 32 W/m2
18:35 68.2 °F 61.4 °F 30.10 in ESE 1 mph 1 mph 79% 0.00 in 28 W/m2
18:40 68.1 °F 61.7 °F 30.10 in Calm   1 mph 80% 0.00 in 25 W/m2
18:45 68.1 °F 61.7 °F 30.10 in Calm   1 mph 80% 0.00 in 23 W/m2
18:50 67.8 °F 61.8 °F 30.10 in NW 1 mph 1 mph 81% 0.00 in 18 W/m2
18:55 67.7 °F 61.7 °F 30.10 in NNE 1 mph 1 mph 81% 0.00 in 14 W/m2
19:00 67.6 °F 61.6 °F 30.10 in ENE 1 mph 1 mph 81% 0.00 in 12 W/m2
19:05 67.5 °F 61.8 °F 30.10 in East 1 mph 1 mph 82% 0.00 in 7 W/m2
19:10 67.5 °F 62.2 °F 30.10 in Calm   1 mph 83% 0.00 in 5 W/m2
19:15 67.3 °F 62 °F 30.10 in Calm   1 mph 83% 0.00 in 0 W/m2
19:20 67.1 °F 61.8 °F 30.10 in Calm     83% 0.00 in 0 W/m2
19:25 67 °F 61.7 °F 30.10 in Calm     83% 0.00 in 0 W/m2
19:30 66.9 °F 61.6 °F 30.10 in Calm     83% 0.00 in 0 W/m2
19:35 66.8 °F 61.5 °F 30.09 in Calm     83% 0.00 in 0 W/m2
19:40 66.7 °F 61.4 °F 30.10 in Calm   1 mph 83% 0.00 in 0 W/m2
19:45 66.6 °F 61.3 °F 30.09 in Calm   1 mph 83% 0.00 in 0 W/m2
19:50 66.5 °F 61.5 °F 30.10 in Calm     84% 0.00 in 0 W/m2
19:55 66.4 °F 61.1 °F 30.10 in Calm     83% 0.00 in 0 W/m2
20:00 66.2 °F 60.9 °F 30.10 in Calm     83% 0.00 in 0 W/m2
Sand Point, Michigan, USA
Compliments of Weather Underground - 2 mb